Home   Weather   Larnaca   Past weeks

Flag for Cyprus Past Weather in Larnaca, Cyprus — Yesterday and Last 2 Weeks

Now
63 °F

Clear.


Feels Like: 63 °F
Forecast: 53 / 78 °F
Wind: 1 mph from North

Location: Larnaca Airport

Current Time: Apr 25, 2017 at 9:42:18 pm

Latest Report: Apr 25, 2017 at 9:00 pm


Visibility: 10 mi

Pressure: 30.07 "Hg

Humidity: 56%

Dew Point: 46 °F

Location of LarnacaLocation

Past Weather in Larnaca — Graph

°F

Larnaca Temperature Yesterday

Maximum temperature yesterday: 70 °F (at 11:30 am)
Minimum temperature yesterday: 50 °F (at 5:00 am)
Average temperature yesterday: 63 °F

High & Low Weather Summary for the Past Weeks

 TemperatureHumidityPressure
High82 °F (Apr 22, 2:30 pm)100% (Apr 13, 7:00 am)30.12 "Hg (Apr 13, 7:00 am)
Low50 °F (Apr 24, 5:00 am)23% (Apr 22, 11:00 am)29.65 "Hg (Apr 23, 12:00 am)
Average65 °F70%29.95 "Hg
* Reported Apr 10 8:00 pm — Apr 25 8:00 pm, Larnaca, Weather by CustomWeather, © 2017

Note: Actual official high and low records may vary slightly from our data, if they occured in-between our weather recording intervals... More about our weather records

Advertising

Larnaca Weather History for the Previous 24 Hours

Scroll right to see more
 ConditionsComfort  
Time TempWeatherWind HumidityBarometerVisibility
8:00 pm
Tue, Apr 25
64 °FPassing clouds.3 mph52%30.07 "HgN/A
7:30 pm66 °FPassing clouds.7 mph52%30.07 "HgN/A
7:00 pm66 °FPassing clouds.6 mph52%30.07 "HgN/A
6:30 pm68 °FPassing clouds.8 mph46%30.07 "HgN/A
6:00 pm70 °FPassing clouds.7 mph46%30.07 "HgN/A
5:30 pm70 °FPassing clouds.10 mph46%30.07 "HgN/A
5:00 pm70 °FPassing clouds.12 mph50%30.07 "HgN/A
4:30 pm70 °FPassing clouds.14 mph50%30.07 "HgN/A
4:00 pm72 °FPassing clouds.15 mph47%30.07 "HgN/A
3:30 pm72 °FPassing clouds.15 mph44%30.09 "HgN/A
3:00 pm72 °FPassing clouds.13 mph41%30.09 "HgN/A
2:30 pm72 °FPassing clouds.12 mph44%30.09 "HgN/A
2:00 pm70 °FPassing clouds.10 mph53%30.09 "HgN/A
1:30 pm70 °FPassing clouds.9 mph53%30.12 "HgN/A
1:00 pm70 °FPassing clouds.10 mph57%30.12 "HgN/A
12:30 pm70 °FPassing clouds.12 mph50%30.12 "HgN/A
12:00 pm70 °FPassing clouds.12 mph50%30.12 "HgN/A
11:30 am72 °FPassing clouds.10 mph47%30.12 "HgN/A
11:00 am70 °FPassing clouds.9 mph50%30.12 "HgN/A
10:30 am70 °FSunny.8 mph50%30.12 "Hg10 mi
10:00 am70 °FSunny.8 mph43%30.12 "Hg10 mi
9:30 am68 °FSunny.10 mph43%30.12 "Hg10 mi
9:00 am68 °FSunny.9 mph43%30.12 "Hg10 mi
8:30 am68 °FPassing clouds.9 mph40%30.09 "HgN/A
8:00 am64 °FSunny.5 mph43%30.09 "Hg10 mi
7:30 am59 °FSunny.1 mph48%30.09 "Hg10 mi
7:00 am55 °FSunny.No wind51%30.09 "Hg10 mi
6:30 am52 °FSunny.3 mph54%30.09 "Hg10 mi
6:00 am55 °FClear.5 mph44%30.07 "Hg10 mi
5:30 am52 °FClear.6 mph54%30.07 "Hg10 mi
5:00 am52 °FClear.2 mph62%30.07 "Hg10 mi
4:00 am54 °FClear.6 mph67%30.07 "Hg10 mi
3:30 am55 °FClear.8 mph67%30.07 "Hg10 mi
3:00 am54 °FClear.5 mph77%30.07 "Hg10 mi
2:30 am54 °FClear.3 mph72%30.07 "Hg10 mi
2:00 am55 °FClear.5 mph72%30.07 "Hg10 mi
1:30 am57 °FClear.7 mph63%30.09 "Hg10 mi
1:00 am57 °FClear.6 mph67%30.09 "Hg10 mi
12:30 am59 °FClear.7 mph63%30.09 "Hg10 mi
12:00 am59 °FClear.6 mph63%30.09 "Hg10 mi
11:00 pm
Mon, Apr 24
61 °FClear.10 mph59%30.09 "Hg10 mi
10:30 pm61 °FClear.12 mph59%30.09 "Hg10 mi
10:00 pm61 °FPassing clouds.10 mph59%30.09 "HgN/A
9:30 pm61 °FPassing clouds.12 mph59%30.09 "HgN/A
9:00 pm63 °FPassing clouds.6 mph52%30.09 "HgN/A
Weather by CustomWeather, © 2017

See weather overviewHow to use our weather pages